Location: Ahausen
(50.4985°N, 8.2722°E)
Time: 03:26:46
(UTC+00:00)

SJ 16-02 - Pass Details

Date: 18 September 2020
Orbit: 606 x 616 km, 75.0° (Epoch: 22 October)

Event Time Altitude Azimuth Distance (km) Brightness Sun altitude
Rises 17:58:17 0° 202° (SSW) 2,854 5.0 -4.8°
Reaches altitude 10° 18:00:30 10° 202° (SSW) 1,954 4.1 -5.1°
Maximum altitude 18:04:53 86° 291° (WNW) 615 1.4 -5.8°
Drops below altitude 10° 18:09:17 10° 22° (NNE) 1,968 3.8 -6.5°
Sets 18:11:32 0° 23° (NNE) 2,877 4.7 -6.9°
